293  
AXUS43 KGID 210402  
MISGRI  
 
GID CWA HOURLY WEATHER ROUNDUP  
NATIONAL WEATHER SERVICE HASTINGS NE  
1000 PM CST MON NOV 20 2017  
 
NOTE: "FAIR" INDICATES FEW OR NO CLOUDS BELOW 12,000 FEET WITH NO  
SIGNIFICANT WEATHER AND/OR OBSTRUCTIONS TO VISIBILITY.  
   
..SOUTH CENTRAL NEBRASKA
 
 
 
CITY SKY/WX TMP DP RH WIND PRES REMARKS  
GRAND ISLAND CLOUDY 38 28 67 W5 29.72R WCI 34  
KEARNEY CLOUDY 46 25 43 NW9 29.73R  
HASTINGS CLOUDY 41 24 51 NW5 29.72R  
ORD CLOUDY 34 23 64 N5 29.72R WCI 30  
YORK CLOUDY 39 25 56 NW3 29.70S  
AURORA CLOUDY 40 24 51 NW7 29.71R  
LEXINGTON CLOUDY 43 27 51 W8 29.76R  
HOLDREGE CLOUDY 51 26 38 NW10 29.73R  
HEBRON CLOUDY 43 28 56 CALM 29.70R  
   
..NEBRASKA PANHANDLE
 
 
 
CITY SKY/WX TMP DP RH WIND PRES REMARKS  
CHADRON MOCLDY 34 23 64 CALM 29.76S  
ALLIANCE PTCLDY 40 21 46 W9 29.78S WCI 34  
SCOTTSBLUFF MOCLDY 51 20 29 W10 29.79F  
SIDNEY CLOUDY 49 19 30 NW13 29.82S  
   
..WESTERN AND NORTH CENTRAL NEBRASKA
 
 
 
CITY SKY/WX TMP DP RH WIND PRES REMARKS  
VALENTINE CLOUDY 33 21 61 W6 29.74R WCI 28  
AINSWORTH CLOUDY 35 22 59 W6 29.74R WCI 30  
ONEILL CLOUDY 42 23 46 NW7 29.73R  
BROKEN BOW CLOUDY 39 22 50 CALM 29.74R  
IMPERIAL CLOUDY 51 20 29 N9 29.78S  
NORTH PLATTE CLOUDY 39 26 59 N3 29.77R  
MCCOOK CLOUDY 48 26 42 NW10 29.77R  
   
..EASTERN NEBRASKA
 
 
 
CITY SKY/WX TMP DP RH WIND PRES REMARKS  
NORFOLK CLOUDY 38 24 57 W5 29.69R WCI 34  
SO SIOUX CITY PTCLDY 35 27 72 W5 29.66R WCI 31  
TEKAMAH CLOUDY 39 26 59 CALM 29.67R  
COLUMBUS CLOUDY 32 24 72 CALM 29.71R  
ALBION CLOUDY 35 24 64 NW7 29.71R WCI 29  
OMAHA EPPLEY CLOUDY 43 28 55 CALM 29.67R  
OFFUTT AFB CLOUDY 35 27 73 CALM 29.67R  
MILLARD CLOUDY 45 30 55 CALM 29.68R  
LINCOLN CLOUDY 41 27 57 S3 29.70R  
NEBRASKA CITY CLEAR 42 29 60 SW10 29.68R  
BEATRICE CLOUDY 43 27 53 SW3 29.69S  
FALLS CITY CLEAR 48 28 46 SW10 29.69R  
   
..NORTHERN KANSAS
 
 
 
CITY SKY/WX TMP DP RH WIND PRES REMARKS  
GOODLAND CLOUDY 52 18 26 NE5 29.81R  
HILL CITY CLOUDY 51 23 33 W7 29.76R  
NORTON CLEAR 48 16 27 NW10 29.75R  
SMITH CENTER CLEAR 45 25 45 NW6 29.72R  
HAYS CLOUDY 49 21 33 W6 29.75S  
RUSSELL CLOUDY 50 23 34 S10 29.73S  
CONCORDIA CLOUDY 53 24 32 SW15 29.69S  
SALINA CLOUDY 55 27 34 S18 29.73S  
TOPEKA PTCLDY 56 30 37 SW12 29.74S  
 
CLICK HERE TO GO TO PREVIOUS BULLETINS.

The Nexlab NE Page
The Nexlab KS Page Main Text Page